When you browse on this site, cookies collect data to enhance your experience and personalize the content and advertising you see.
Visit our Privacy Policy to learn more. By continuing to use the site, you agree to this use of cookies and data.
  • In Portugal
  • List of Countries
  • For 7 days
  • Water Temperature
  • Satellite Maps
  • Weather Map
  • Weather Widgets
  • user-avatar
    Login

    Hourly Weather Biskupie

    Today, 20 June, Thursday

    Time Temperature Precipitation Wind Pressure Humidity
    00:00 +21°C° 0 mm 2 mps 748 mmHg 79%
    01:00 +21°C° 0 mm 2 mps 748 mmHg 79%
    02:00 +20°C° 0 mm 2 mps 748 mmHg 80%
    03:00 +20°C° 0 mm 2 mps 748 mmHg 80%
    04:00 +21°C° 0 mm 1 mps 747 mmHg 81%
    05:00 +21°C° 0.3 mm 2 mps 748 mmHg 80%
    06:00 +23°C° 0.3 mm 2 mps 748 mmHg 80%
    07:00 +24°C° 0.3 mm 2 mps 748 mmHg 79%
    08:00 +25°C° 0.1 mm 3 mps 748 mmHg 74%
    09:00 +27°C° 0.1 mm 3 mps 748 mmHg 70%
    10:00 +28°C° 0.1 mm 3 mps 748 mmHg 65%
    11:00 +29°C° 0.2 mm 3 mps 748 mmHg 60%
    12:00 +30°C° 0.2 mm 3 mps 748 mmHg 55%
    13:00 +31°C° 0.2 mm 3 mps 748 mmHg 51%
    14:00 +31°C° 0 mm 3 mps 748 mmHg 51%
    15:00 +31°C° 0 mm 2 mps 747 mmHg 52%
    16:00 +31°C° 0 mm 2 mps 747 mmHg 52%
    17:00 +29°C° 0.3 mm 3 mps 747 mmHg 59%
    18:00 +26°C° 0.3 mm 4 mps 748 mmHg 67%
    19:00 +23°C° 0.3 mm 4 mps 748 mmHg 74%
    20:00 +22°C° 1.5 mm 3 mps 748 mmHg 79%
    21:00 +20°C° 1.5 mm 3 mps 749 mmHg 84%
    22:00 +19°C° 1.5 mm 2 mps 749 mmHg 89%
    23:00 +19°C° 0 mm 2 mps 749 mmHg 88%

    Tomorrow, 21 June, Friday

    Time Temperature Precipitation Wind Pressure Humidity
    00:00 +20°C° 0 mm 1 mps 749 mmHg 87%
    01:00 +19°C° 0 mm 1 mps 750 mmHg 87%
    02:00 +19°C° 0 mm 1 mps 750 mmHg 88%
    03:00 +18°C° 0 mm 2 mps 750 mmHg 89%
    04:00 +18°C° 0 mm 2 mps 750 mmHg 90%
    05:00 +19°C° 0.1 mm 2 mps 750 mmHg 88%
    06:00 +20°C° 0.1 mm 2 mps 751 mmHg 87%
    07:00 +21°C° 0.1 mm 2 mps 751 mmHg 85%
    08:00 +21°C° 0 mm 2 mps 751 mmHg 83%
    09:00 +23°C° 0 mm 2 mps 752 mmHg 80%
    10:00 +23°C° 0 mm 2 mps 752 mmHg 78%
    11:00 +25°C° 0 mm 1 mps 752 mmHg 72%
    12:00 +26°C° 0 mm 1 mps 752 mmHg 67%
    13:00 +27°C° 0 mm 1 mps 752 mmHg 61%
    14:00 +27°C° 0.6 mm 2 mps 751 mmHg 64%
    15:00 +26°C° 0.6 mm 3 mps 751 mmHg 66%
    16:00 +26°C° 0.6 mm 3 mps 751 mmHg 69%
    17:00 +25°C° 0.6 mm 3 mps 752 mmHg 74%
    18:00 +24°C° 0.6 mm 3 mps 752 mmHg 78%
    19:00 +23°C° 0.6 mm 2 mps 752 mmHg 83%
    20:00 +21°C° 0 mm 3 mps 752 mmHg 86%
    21:00 +20°C° 0 mm 3 mps 753 mmHg 90%
    22:00 +19°C° 0 mm 3 mps 753 mmHg 93%
    23:00 +18°C° 0 mm 3 mps 754 mmHg 93%

    Day after tomorrow, 22 June, Saturday

    Time Temperature Precipitation Wind Pressure Humidity
    00:00 +18°C° 0 mm 4 mps 754 mmHg 94%
    01:00 +16°C° 0 mm 5 mps 754 mmHg 94%
    02:00 +15°C° 0 mm 4 mps 754 mmHg 94%
    03:00 +15°C° 0 mm 4 mps 755 mmHg 95%
    04:00 +14°C° 0 mm 3 mps 755 mmHg 95%
    05:00 +15°C° 0 mm 4 mps 755 mmHg 90%
    06:00 +17°C° 0 mm 4 mps 756 mmHg 85%
    07:00 +17°C° 0 mm 4 mps 756 mmHg 80%
    08:00 +19°C° 0 mm 4 mps 756 mmHg 75%
    09:00 +20°C° 0 mm 4 mps 756 mmHg 70%
    10:00 +21°C° 0 mm 4 mps 756 mmHg 65%
    11:00 +22°C° 0 mm 4 mps 756 mmHg 63%
    12:00 +23°C° 0 mm 4 mps 756 mmHg 60%
    13:00 +23°C° 0 mm 4 mps 756 mmHg 58%
    14:00 +23°C° 0 mm 5 mps 756 mmHg 60%
    15:00 +23°C° 0 mm 5 mps 756 mmHg 61%
    16:00 +23°C° 0 mm 5 mps 756 mmHg 63%
    17:00 +21°C° 0 mm 5 mps 756 mmHg 67%
    18:00 +20°C° 0 mm 5 mps 756 mmHg 71%
    19:00 +19°C° 0 mm 5 mps 756 mmHg 75%
    20:00 +16°C° 0 mm 5 mps 756 mmHg 75%
    21:00 +15°C° 0 mm 5 mps 757 mmHg 74%
    22:00 +14°C° 0 mm 5 mps 757 mmHg 74%
    23:00 +13°C° 0 mm 4 mps 757 mmHg 76%

    23 June, Sunday

    Time Temperature Precipitation Wind Pressure Humidity
    00:00 +12°C° 0 mm 4 mps 757 mmHg 78%
    01:00 +11°C° 0 mm 4 mps 757 mmHg 80%
    02:00 +11°C° 0 mm 4 mps 757 mmHg 80%
    03:00 +11°C° 0 mm 4 mps 757 mmHg 80%
    04:00 +10°C° 0 mm 4 mps 757 mmHg 81%
    05:00 +11°C° 0 mm 4 mps 757 mmHg 79%
    06:00 +12°C° 0 mm 4 mps 757 mmHg 77%
    07:00 +13°C° 0 mm 4 mps 757 mmHg 75%
    08:00 +15°C° 0 mm 4 mps 757 mmHg 73%
    09:00 +17°C° 0 mm 4 mps 757 mmHg 71%
    10:00 +19°C° 0 mm 4 mps 758 mmHg 69%
    11:00 +20°C° 0 mm 4 mps 758 mmHg 67%
    12:00 +21°C° 0 mm 4 mps 758 mmHg 64%
    13:00 +21°C° 0 mm 4 mps 758 mmHg 62%
    14:00 +21°C° 0 mm 5 mps 757 mmHg 62%
    15:00 +21°C° 0 mm 5 mps 757 mmHg 63%
    16:00 +21°C° 0 mm 5 mps 757 mmHg 63%
    17:00 +20°C° 0 mm 4 mps 757 mmHg 68%
    18:00 +20°C° 0 mm 4 mps 758 mmHg 74%
    19:00 +19°C° 0 mm 4 mps 758 mmHg 79%
    20:00 +17°C° 0 mm 4 mps 758 mmHg 83%
    21:00 +15°C° 0 mm 4 mps 758 mmHg 86%
    22:00 +14°C° 0 mm 4 mps 759 mmHg 90%
    23:00 +13°C° 0 mm 3 mps 759 mmHg 90%

    24 June, Monday

    Time Temperature Precipitation Wind Pressure Humidity
    00:00 +13°C° 0 mm 3 mps 759 mmHg 89%
    01:00 +12°C° 0 mm 3 mps 759 mmHg 89%
    02:00 +12°C° 0 mm 3 mps 759 mmHg 89%
    03:00 +11°C° 0 mm 3 mps 759 mmHg 90%
    04:00 +11°C° 0 mm 3 mps 759 mmHg 90%
    05:00 +12°C° 0 mm 3 mps 759 mmHg 86%
    06:00 +14°C° 0 mm 3 mps 759 mmHg 81%
    07:00 +17°C° 0 mm 3 mps 760 mmHg 76%
    08:00 +18°C° 0 mm 3 mps 760 mmHg 71%
    09:00 +20°C° 0 mm 3 mps 760 mmHg 66%
    10:00 +22°C° 0 mm 3 mps 760 mmHg 60%
    11:00 +24°C° 0 mm 3 mps 760 mmHg 58%
    12:00 +25°C° 0 mm 3 mps 760 mmHg 55%
    13:00 +26°C° 0 mm 3 mps 759 mmHg 53%
    14:00 +26°C° 0 mm 3 mps 759 mmHg 53%
    15:00 +26°C° 0 mm 3 mps 759 mmHg 53%
    16:00 +26°C° 0 mm 3 mps 759 mmHg 53%
    17:00 +25°C° 0 mm 3 mps 759 mmHg 61%
    18:00 +24°C° 0 mm 3 mps 759 mmHg 68%
    19:00 +21°C° 0 mm 3 mps 759 mmHg 76%
    20:00 +20°C° 0 mm 3 mps 760 mmHg 81%
    21:00 +18°C° 0 mm 3 mps 760 mmHg 86%
    22:00 +17°C° 0 mm 3 mps 760 mmHg 91%
    23:00 +16°C° 0 mm 3 mps 761 mmHg 92%

    25 June, Tuesday

    Time Temperature Precipitation Wind Pressure Humidity
    00:00 +16°C° 0 mm 3 mps 761 mmHg 92%
    01:00 +14°C° 0 mm 3 mps 761 mmHg 93%
    02:00 +15°C° 0 mm 2 mps 761 mmHg 94%
    03:00 +14°C° 0 mm 2 mps 761 mmHg 94%
    04:00 +14°C° 0 mm 2 mps 761 mmHg 95%
    05:00 +16°C° 0 mm 2 mps 761 mmHg 89%
    06:00 +17°C° 0 mm 2 mps 761 mmHg 82%
    07:00 +19°C° 0 mm 2 mps 762 mmHg 76%
    08:00 +20°C° 0 mm 3 mps 762 mmHg 71%
    09:00 +22°C° 0 mm 3 mps 762 mmHg 66%
    10:00 +24°C° 0 mm 3 mps 762 mmHg 61%
    11:00 +25°C° 0 mm 3 mps 762 mmHg 57%
    12:00 +26°C° 0 mm 3 mps 761 mmHg 52%
    13:00 +26°C° 0 mm 3 mps 761 mmHg 48%
    14:00 +26°C° 0 mm 3 mps 761 mmHg 49%
    15:00 +26°C° 0 mm 3 mps 761 mmHg 49%
    16:00 +26°C° 0 mm 3 mps 761 mmHg 50%
    17:00 +25°C° 0 mm 3 mps 761 mmHg 57%
    18:00 +24°C° 0 mm 3 mps 761 mmHg 65%
    19:00 +21°C° 0 mm 3 mps 761 mmHg 72%
    20:00 +20°C° 0 mm 3 mps 762 mmHg 76%
    21:00 +18°C° 0 mm 3 mps 762 mmHg 81%
    22:00 +17°C° 0 mm 3 mps 762 mmHg 85%
    23:00 +16°C° 0 mm 3 mps 762 mmHg 87%
    Show more